Regional Weather Roundup
Issued by NWS

Home | Current Version | Previous Version | Graphics & Text | Print | Product List | Glossary Off
Versions: 1 2 3 4 5 6 7 8 9 10 11 12 13 14 15 16 17 18 19 20 21 22 23 24 25 26 27 28 29 30 31 32 33 34 35 36 37 38 39 40 41 42 43 44 45 46 47 48 49 50

000
ASUS43 KDMX 281608
RWRIA

WEATHER ROUNDUP FOR IOWA
NATIONAL WEATHER SERVICE DES MOINES IA
1100 AM CDT THU APR 28 2016

NOTE: "FAIR" INDICATES FEW OR NO CLOUDS BELOW 12,000 FEET WITH NO
SIGNIFICANT WEATHER AND/OR OBSTRUCTIONS TO VISIBILITY.

* - THESE STATIONS ARE NOT NWS STATIONS...THUS NOT UNDER NWS
QUALITY CONTROL.  THEY ALSO DO NOT REPORT WEATHER SUCH
AS PRECIPITATION OR FOG.

IAZ001>003-012>014-020>022-031>034-043>046-281700-
   NORTHWEST IOWA

CITY           SKY/WX    TMP DP  RH WIND       PRES   REMARKS
CARROLL *      CLOUDY    50  48  93 N8        29.82R
CHEROKEE *     CLOUDY    41  41 100 N8        29.89R FOG
DENISON *      CLOUDY    45  45 100 NW12G17   29.86R FOG
LE MARS *      CLOUDY    43  39  87 N8        29.93R
ORANGE CITY *  CLOUDY    39  37  93 N7        29.91R WCI  34
SHELDON *      CLOUDY    39  37  93 NE12      29.90R WCI  32
SIOUX CITY     CLOUDY    45  41  86 N12       29.92R
SPENCER        LGT RAIN  41  37  86 NE15      29.90R
STORM LAKE *   MIX PCPN  41  39  93 NE14      29.88R
$$

IAZ055>058-069>071-079>083-090>094-281700-
   SOUTHWEST IOWA

CITY           SKY/WX    TMP DP  RH WIND       PRES   REMARKS
ATLANTIC *     CLOUDY    48  45  87 NW14G20   29.86R
AUDUBON *      PTSUNNY   48  45  87 NW9G16    29.85R
CLARINDA *       N/A    N/A N/A N/A MISG        N/A
COUNCIL BLFS *   N/A     46  45  93 NW14      29.88R
CRESTON *      CLOUDY    48  46  93 W13       29.86R FOG
HARLAN  *      CLOUDY    46  45  93 NW20      29.90R
LAMONI         CLOUDY    53  45  74 W13       29.86R
RED OAK *      CLOUDY    48  45  87 NW15      29.88R
SHENANDOAH *   CLOUDY    50  46  87 NW12G17   29.90R
$$

IAZ047>049-059>061-072>074-084-281700-
   CENTRAL IOWA

CITY           SKY/WX    TMP DP  RH WIND       PRES   REMARKS
AMES           CLOUDY    48  46  93 W5        29.83R FOG
ANKENY *       CLOUDY    50  46  87 VRB5      29.83R
BOONE *        CLOUDY    46  46 100 NE5       29.83R FOG
CHARITON *     PTSUNNY   52  48  87 W7G13     29.84R
DES MOINES     CLOUDY    53  44  71 W7        29.83R
GRINNELL*      CLOUDY    50  46  87 W6        29.83R
KNOXVILLE *    CLOUDY    52  45  76 NW10      29.82R
MARSHALLTOWN   CLOUDY    49  47  93 E13       29.82R
NEWTON *       CLOUDY    52  48  87 W5        29.82R
PELLA *        PTSUNNY   52  46  82 NW6       29.84R
$$

IAZ004>006-015-016-023>025-035-036-281700-
   NORTH CENTRAL IOWA

CITY           SKY/WX    TMP DP  RH WIND       PRES   REMARKS
ALGONA *       CLOUDY    43  41  93 NE10      29.87R FOG
CLARION *      CLOUDY    46  45  93 E14       29.85R
ESTHERVILLE    LGT RAIN  39  38  96 N13       29.89R WCI  31
FORT DODGE *   CLOUDY    46  41  81 E7        29.85R
MASON CITY     CLOUDY    42  40  92 E12       29.87R
FOREST CITY *  DRIZZLE   41  39  93 NE8       29.87R
WEBSTER CITY * CLOUDY    46  46 100 E10       29.83R
IOWA FALLS *   DRIZZLE   46  45  93 E6        29.85R
$$

IAZ007>011-017>019-026>030-037>042-050>054-066-281700-
   NORTHEAST IOWA

CITY           SKY/WX    TMP DP  RH WIND       PRES   REMARKS
CEDAR RAPIDS   LGT RAIN  49  49 100 E10       29.81R FOG
CHARLES CITY * CLOUDY    45  45 100 E14G20    29.86R
CLINTON *      CLOUDY    50  46  86 E15       29.86R
DECORAH *      CLOUDY    43  39  87 E10G20    29.86R
DUBUQUE        CLOUDY    46  44  93 E14G22    29.85R
MONTICELLO *   CLOUDY    48  46  93 E10       29.84R
OELWEIN *      CLOUDY    46  46 100 E14G21    29.85R
WATERLOO       CLOUDY    47  44  90 E13       29.84R
$$

IAZ064-065-067-068-078-281700-
   EAST CENTRAL IOWA

CITY           SKY/WX    TMP DP  RH WIND       PRES   REMARKS
DAVENPORT      CLOUDY    49  46  90 E12       29.85R FOG
IOWA CITY      CLOUDY    54  52  93 SE7       29.83R FOG
MT. PLEASANT * CLOUDY    55  48  76 SW9       29.85R
MUSCATINE *    CLOUDY    57  52  82 SE7       29.83R
QUAD CITIES    CLOUDY    51  47  86 E12       29.85R FOG
$$

IAZ062-063-075>077-085>089-095>099-281700-
   SOUTHEAST IOWA

CITY           SKY/WX    TMP DP  RH WIND       PRES   REMARKS
BURLINGTON     CLOUDY    55  49  80 W7        29.83R
FAIRFIELD *    CLOUDY    52  45  76 SW14      29.84R
FORT MADISON * CLOUDY    54  46  76 SW12      29.86R
KEOKUK *       CLOUDY    54  45  71 W10G17    29.86R
OSKALOOSA *    CLOUDY    50  46  87 W7        29.84R FOG
OTTUMWA        CLOUDY    51  45  79 W8        29.83R
WASHINGTON *   CLOUDY    54  50  87 SW9       29.84R
$$

ABBREVIATIONS USED IN REMARKS
   TC - TEMPERATURES IN CELSIUS
  WCI - WIND CHILL INDEX
   HX - HEAT INDEX
  VSB - VISIBILITY
$$




USA.gov is the U.S. government's official web portal to all federal, state and local government web resources and services.